When you browse on this site, cookies collect data to enhance your experience and personalize the content and advertising you see.
Visit our Privacy Policy to learn more. By continuing to use the site, you agree to this use of cookies and data.
  • In Schweiz
  • Länderverzeichnis
  • Für 7 Tage
  • Wassertemperatur
  • Satellitenkarten
  • Wetterkarte
  • Widgets
  • user-avatar
    Anmelden

    Stündliche Wetter Plakho-Petrivka

    Heute, 26 April, Freitag

    Zeit Temperatur Niederschläge Wind Luftdruck Luftfeuchtigkeit
    00:00 +16°C° 0.3 mm 0 m/S 754 mmHg 57%
    01:00 +16°C° 0.5 mm 0 m/S 754 mmHg 59%
    02:00 +16°C° 0.5 mm 1 m/S 754 mmHg 61%
    03:00 +16°C° 0 mm 1 m/S 753 mmHg 65%
    04:00 +16°C° 0 mm 1 m/S 753 mmHg 65%
    05:00 +15°C° 0 mm 1 m/S 753 mmHg 66%
    06:00 +15°C° 0 mm 1 m/S 753 mmHg 66%
    07:00 +18°C° 0.4 mm 1 m/S 753 mmHg 61%
    08:00 +20°C° 0.4 mm 1 m/S 753 mmHg 56%
    09:00 +21°C° 0 mm 0 m/S 753 mmHg 49%
    10:00 +24°C° 0 mm 1 m/S 753 mmHg 44%
    11:00 +25°C° 0 mm 1 m/S 753 mmHg 38%
    12:00 +26°C° 0 mm 1 m/S 753 mmHg 32%
    13:00 +26°C° 0 mm 1 m/S 753 mmHg 37%
    14:00 +25°C° 0 mm 1 m/S 753 mmHg 41%
    15:00 +24°C° 0 mm 1 m/S 753 mmHg 46%
    16:00 +21°C° 1.2 mm 2 m/S 752 mmHg 55%
    17:00 +19°C° 1.2 mm 3 m/S 752 mmHg 63%
    18:00 +18°C° 1.2 mm 4 m/S 752 mmHg 72%
    19:00 +17°C° 2.8 mm 3 m/S 752 mmHg 75%
    20:00 +16°C° 2.8 mm 3 m/S 752 mmHg 78%
    21:00 +16°C° 2.8 mm 3 m/S 752 mmHg 80%
    22:00 +15°C° 0 mm 2 m/S 752 mmHg 80%
    23:00 +15°C° 0 mm 1 m/S 752 mmHg 80%

    Morgen, 27 April, Samstag

    Zeit Temperatur Niederschläge Wind Luftdruck Luftfeuchtigkeit
    00:00 +14°C° 0 mm 0 m/S 752 mmHg 80%
    01:00 +15°C° 0 mm 1 m/S 752 mmHg 81%
    02:00 +14°C° 0 mm 1 m/S 752 mmHg 82%
    03:00 +14°C° 0 mm 2 m/S 752 mmHg 83%
    04:00 +14°C° 0 mm 2 m/S 752 mmHg 83%
    05:00 +13°C° 0 mm 2 m/S 751 mmHg 83%
    06:00 +13°C° 0 mm 2 m/S 751 mmHg 83%
    07:00 +15°C° 0 mm 2 m/S 751 mmHg 76%
    08:00 +17°C° 0 mm 2 m/S 751 mmHg 69%
    09:00 +19°C° 0 mm 2 m/S 751 mmHg 62%
    10:00 +20°C° 0 mm 2 m/S 751 mmHg 56%
    11:00 +21°C° 0 mm 2 m/S 750 mmHg 50%
    12:00 +24°C° 0 mm 2 m/S 750 mmHg 45%
    13:00 +24°C° 0 mm 2 m/S 750 mmHg 44%
    14:00 +24°C° 0 mm 2 m/S 750 mmHg 44%
    15:00 +24°C° 0 mm 2 m/S 749 mmHg 43%
    16:00 +23°C° 0 mm 2 m/S 749 mmHg 46%
    17:00 +23°C° 0 mm 2 m/S 749 mmHg 50%
    18:00 +23°C° 0 mm 1 m/S 748 mmHg 53%
    19:00 +21°C° 0 mm 1 m/S 748 mmHg 55%
    20:00 +20°C° 0 mm 1 m/S 748 mmHg 58%
    21:00 +18°C° 0 mm 1 m/S 748 mmHg 60%
    22:00 +18°C° 0.5 mm 1 m/S 748 mmHg 65%
    23:00 +16°C° 0.5 mm 2 m/S 748 mmHg 69%

    übermorgen, 28 April, Sonntag

    Zeit Temperatur Niederschläge Wind Luftdruck Luftfeuchtigkeit
    00:00 +15°C° 0.5 mm 2 m/S 748 mmHg 73%
    01:00 +14°C° 0.2 mm 3 m/S 747 mmHg 76%
    02:00 +14°C° 0.2 mm 3 m/S 747 mmHg 78%
    03:00 +13°C° 0.2 mm 3 m/S 747 mmHg 80%
    04:00 +13°C° 0 mm 3 m/S 747 mmHg 81%
    05:00 +13°C° 0 mm 3 m/S 747 mmHg 82%
    06:00 +13°C° 0 mm 2 m/S 747 mmHg 84%
    07:00 +15°C° 0 mm 2 m/S 747 mmHg 76%
    08:00 +17°C° 0 mm 2 m/S 747 mmHg 68%
    09:00 +19°C° 0 mm 2 m/S 747 mmHg 61%
    10:00 +19°C° 0.1 mm 3 m/S 746 mmHg 59%
    11:00 +19°C° 0.1 mm 3 m/S 746 mmHg 57%
    12:00 +20°C° 0.1 mm 3 m/S 746 mmHg 56%
    13:00 +18°C° 1.2 mm 3 m/S 746 mmHg 66%
    14:00 +16°C° 1.2 mm 3 m/S 746 mmHg 76%
    15:00 +13°C° 1.2 mm 3 m/S 746 mmHg 86%
    16:00 +13°C° 0.5 mm 3 m/S 746 mmHg 83%
    17:00 +14°C° 0.5 mm 2 m/S 746 mmHg 81%
    18:00 +14°C° 0.5 mm 2 m/S 745 mmHg 79%
    19:00 +14°C° 0 mm 2 m/S 746 mmHg 79%
    20:00 +13°C° 0 mm 2 m/S 746 mmHg 80%
    21:00 +13°C° 0 mm 2 m/S 746 mmHg 80%
    22:00 +13°C° 0 mm 1 m/S 746 mmHg 81%
    23:00 +13°C° 0 mm 1 m/S 746 mmHg 83%

    29 April, Montag

    Zeit Temperatur Niederschläge Wind Luftdruck Luftfeuchtigkeit
    00:00 +13°C° 0 mm 1 m/S 746 mmHg 84%
    01:00 +13°C° 0 mm 2 m/S 747 mmHg 86%
    02:00 +13°C° 0 mm 2 m/S 747 mmHg 87%
    03:00 +11°C° 0 mm 3 m/S 747 mmHg 89%
    04:00 +11°C° 0 mm 4 m/S 748 mmHg 88%
    05:00 +9°C° 0 mm 5 m/S 748 mmHg 87%
    06:00 +8°C° 0 mm 6 m/S 748 mmHg 86%
    07:00 +8°C° 0.1 mm 6 m/S 748 mmHg 84%
    08:00 +8°C° 0.1 mm 6 m/S 749 mmHg 83%
    09:00 +8°C° 0.1 mm 6 m/S 749 mmHg 81%
    10:00 +9°C° 0 mm 6 m/S 750 mmHg 77%
    11:00 +10°C° 0 mm 6 m/S 750 mmHg 73%
    12:00 +10°C° 0 mm 6 m/S 750 mmHg 69%
    13:00 +11°C° 0 mm 6 m/S 750 mmHg 66%
    14:00 +13°C° 0 mm 5 m/S 750 mmHg 63%
    15:00 +13°C° 0 mm 5 m/S 750 mmHg 60%
    16:00 +13°C° 0 mm 4 m/S 750 mmHg 62%
    17:00 +13°C° 0 mm 4 m/S 750 mmHg 64%
    18:00 +13°C° 0 mm 3 m/S 750 mmHg 65%
    19:00 +12°C° 0.1 mm 3 m/S 750 mmHg 67%
    20:00 +11°C° 0.1 mm 4 m/S 750 mmHg 68%
    21:00 +10°C° 0.1 mm 4 m/S 750 mmHg 70%
    22:00 +10°C° 0.6 mm 4 m/S 750 mmHg 72%
    23:00 +8°C° 0.6 mm 4 m/S 750 mmHg 74%

    30 April, Dienstag

    Zeit Temperatur Niederschläge Wind Luftdruck Luftfeuchtigkeit
    00:00 +8°C° 0.6 mm 5 m/S 750 mmHg 76%
    01:00 +7°C° 0.4 mm 5 m/S 750 mmHg 77%
    02:00 +7°C° 0.4 mm 5 m/S 750 mmHg 78%
    03:00 +7°C° 0.4 mm 5 m/S 750 mmHg 80%
    04:00 +6°C° 0.1 mm 5 m/S 750 mmHg 80%
    05:00 +5°C° 0.1 mm 6 m/S 750 mmHg 80%
    06:00 +5°C° 0.1 mm 6 m/S 750 mmHg 80%
    07:00 +5°C° 0.3 mm 6 m/S 749 mmHg 81%
    08:00 +5°C° 0.3 mm 6 m/S 749 mmHg 82%
    09:00 +5°C° 0.3 mm 6 m/S 749 mmHg 83%
    10:00 +5°C° 0.7 mm 7 m/S 749 mmHg 84%
    11:00 +5°C° 0.7 mm 7 m/S 749 mmHg 84%
    12:00 +5°C° 0.7 mm 7 m/S 749 mmHg 85%
    13:00 +5°C° 0.7 mm 7 m/S 749 mmHg 85%
    14:00 +5°C° 0.7 mm 7 m/S 748 mmHg 85%
    15:00 +6°C° 0.7 mm 7 m/S 748 mmHg 85%
    16:00 +6°C° 0.1 mm 7 m/S 748 mmHg 85%
    17:00 +5°C° 0.1 mm 6 m/S 748 mmHg 86%
    18:00 +5°C° 0.1 mm 6 m/S 747 mmHg 86%
    19:00 +5°C° 0 mm 6 m/S 747 mmHg 87%
    20:00 +5°C° 0 mm 6 m/S 747 mmHg 88%
    21:00 +5°C° 0 mm 5 m/S 747 mmHg 89%
    22:00 +5°C° 0.1 mm 5 m/S 746 mmHg 89%
    23:00 +5°C° 0.1 mm 5 m/S 746 mmHg 90%

    1 Mai, Mittwoch

    Zeit Temperatur Niederschläge Wind Luftdruck Luftfeuchtigkeit
    00:00 +5°C° 0.1 mm 5 m/S 746 mmHg 91%
    01:00 +5°C° 0.1 mm 5 m/S 745 mmHg 91%
    02:00 +5°C° 0.1 mm 5 m/S 745 mmHg 92%
    03:00 +5°C° 0.1 mm 5 m/S 744 mmHg 92%
    04:00 +5°C° 0.1 mm 5 m/S 744 mmHg 93%
    05:00 +5°C° 0.1 mm 5 m/S 744 mmHg 93%
    06:00 +5°C° 0.1 mm 5 m/S 743 mmHg 93%
    07:00 +6°C° 0.5 mm 5 m/S 743 mmHg 93%
    08:00 +7°C° 0.5 mm 5 m/S 743 mmHg 92%
    09:00 +7°C° 0.5 mm 5 m/S 743 mmHg 91%
    10:00 +10°C° 0.5 mm 4 m/S 742 mmHg 88%
    11:00 +12°C° 0.5 mm 4 m/S 742 mmHg 84%
    12:00 +14°C° 0.5 mm 4 m/S 742 mmHg 81%
    13:00 +15°C° 0.9 mm 4 m/S 741 mmHg 76%
    14:00 +17°C° 0.9 mm 4 m/S 741 mmHg 72%
    15:00 +18°C° 0.9 mm 4 m/S 740 mmHg 67%
    16:00 +18°C° 1 mm 4 m/S 740 mmHg 70%
    17:00 +18°C° 1 mm 4 m/S 740 mmHg 72%
    18:00 +18°C° 1 mm 3 m/S 739 mmHg 75%
    19:00 +15°C° 0.5 mm 4 m/S 739 mmHg 79%
    20:00 +14°C° 0.5 mm 4 m/S 739 mmHg 83%
    21:00 +13°C° 0.5 mm 4 m/S 739 mmHg 87%
    22:00 +13°C° 0 mm 4 m/S 738 mmHg 89%
    23:00 +12°C° 0 mm 3 m/S 738 mmHg 91%
    Mehr zeigen